Showing default

HULIANWANG DIGUI-103, 66419

Orbit data source: Space-Track

HULIANWANG DIGUI-103, 66419 is a payload satellite owned by Zhongguo Xingwang (CN) in LEO that was launched on Mon, 10 Nov 2025 UTC via a CHANG ZHENG 12 launch vehicle from the Wenchang Satellite Launch Center (WSC). Payload-class satellites include a variety of spacecraft equipped with specific instruments for various scientific and technological missions. These include communications satellites like Starlink; space stations such as the ISS; scientific satellites like the Hubble; Earth observation satellites from companies like Planet Labs, Umbra, and HawkEye 360; GPS; miniature CubeSats for education and research; and military/defense satellites.

Loading next visibility...
Identifier
66419, 2025-258H
Orbit
LEO
Country
Flag of CNCN / PRC
Related business
Manufacturer
SECM
Mission
Operational Civil Communications
Bus & Motor
XINGWANG S, Unknown motor
Mass
~800 kg wet, ~800 kg dry
Launch date (UTC)
2025-11-10 (7 months ago)
Launch vehicle
CHANG ZHENG 12
Launch site
Wenchang Satellite Launch Center (WSC)
Object type
Payload
Rocket body
Debris
Shape & HBR
Box + 2 Pan, 1.1 m
Radar Cross Section
5.935 m², Large (>1 m²)

Expand to show TLE details & history
Last TLE update: 14 hours ago

TLE from 14 hours ago
0 HULIANWANG DIGUI-103
1 66419U 25258H   26171.33791001 -.00000088  00000-0  76869-4 0  9996
2 66419  50.0013 284.0404 0000971 164.0069 196.0834 13.29324548 30153
Epoch: 2026-06-20T08:06Z
TLE epoch observation values (Epoch: 2026-06-20T08:06:35.424Z)
Latitude
-0.00003°
Longitude
-106.16119°
Altitude
1,150.52 km
Speed
7.279 km/s
True Right ascension
18h 56m 09s
True Declination
0° 00' 00"
Sunlit
Object was in full shadow at epoch
Visualization orbit readout
Latitude
Unknown
Longitude
Unknown
Altitude
Unknown
Speed
Unknown
Apparent Right ascension
Unknown
Apparent Declination
Unknown
Sunlit
N/A
Visualization observer readout
Local Sidereal Time
08:33:20
Azimuth
Unknown
Elevation
Unknown
Doppler factor
Unknown
Orbital elements
Apogee altitude
1,150.748 km
Perigee altitude
1,149.286 km
Semi-major axis
7,528.154 km
Eccentricity
0.0001
Inclination
50.0013°
RAAN
284.0404°
Arg. of periapsis
164.0069°
True anomaly
196.08032°
Mean anomaly
196.0834°
Eccentric anomaly
196.08186°
Mean motion
3.32285 °/min
Orbital period
108.34 mins
BSTAR
0.000076869
Loading maneuver chart data...
Computing Atmospheric mass density...
Loading historical data...
Loading historical data...
Loading historical data...
Loading historical data...
Loading historical data...
Loading historical data...
Loading historical data...

Documentation

Showing up to 5 results
|